x

Tanner Bank - 121nm West Of San Diego, Ca (46047) Wave Buoy

9:50 - Tue 27th Sep 2016 All times are PDT. -7 hours from GMT.

  • Sig Wave height 3.6ft
  • Swell Direction
  • Peak Period 14s
  • Average Period 8s
  • Wind
    2mph
  • Sea Temp 66°f
  • Aire Temp 69°f
  • Sea Pressure 1010.6mb
  • Tanner Bank - 121nm West Of San Diego, Ca
  • Tanner Bank - 121nm West Of San Diego, Ca

More Historic Weather Station data

Upgrade to MSW Pro to gain access to the past 30 days of data for over 8000 Wavebouys and Weather Stations around the globe.

Join Pro

Comparision Forecast

View Surf forecast
   
mar 09/27 9:50 3.5ft 14s 8s 2
mph
1010.6mb 66f 69f
8:50 3.5ft 15s 8s  -  2 mph 1010mb 66f 69f
7:50 3.5ft 15s 8s 2 4 mph 1009.8mb 66f 71f
6:50 3.5ft 15s 8s 2 4 mph 1009.8mb 66f 74f
5:50 4ft 14s 9s 7 11 mph 1009.4mb 66f 70f
4:50 3.5ft 15s 8s 7 9 mph 1009.5mb 66f 69f
3:50 4ft 15s 9s 7 9 mph 1009.7mb 66f 69f
2:50 3.5ft 15s 8s 7
mph
1010.1mb 66f 69f
1:50 3.5ft 15s 8s 9 11 mph 1010.5mb 66f 70f
12:50 3.5ft 14s 8s 7 9 mph 1011.1mb 67f 70f
lun 09/26 11:50 4ft 15s 8s 9 11 mph 1011.4mb 67f 70f
10:50 3.5ft 10s 8s 11
mph
1011.5mb 67f 70f
9:50 4ft 10s 8s 11 13 mph 1011.5mb 67f 71f
8:50 4ft 15s 8s 7
mph
1011.1mb 68f 70f
7:50 4.5ft 15s 8s 7
mph
1010.8mb 68f 71f
6:50 4ft 15s 8s 9
mph
1010.5mb 69f 72f
5:50 4.5ft 10s 8s 9
mph
1010.6mb 69f 72f
4:50 4.5ft 15s 8s 9
mph
1010.8mb 69f 72f
3:50 4.5ft 15s 8s 7 9 mph 1011.3mb 69f 73f
2:50 4.5ft 10s 8s 4 7 mph 1011.7mb 69f 73f
1:50 4.5ft 8s 8s 7
mph
1012.1mb 69f 73f
12:50 4.5ft 10s  -  4 7 mph 1012.8mb 68f 72f
11:50 4.5ft 15s 8s 4 7 mph 1013.1mb 67f 69f
10:50 4.5ft 15s 8s 4 7 mph 1013.3mb 66f 68f
9:50 4.5ft 10s 8s 4
mph
1013.2mb 65f 67f
8:50 4.5ft 15s 8s 4 7 mph 1013.1mb 65f 67f
7:50 4.5ft 8s 8s 4 7 mph 1012.8mb 65f 66f
6:50 4.5ft 9s 8s 4 7 mph 1012.3mb 65f 65f
5:50 4.5ft 16s 9s 4
mph
1011.9mb 65f 65f
4:50 4.5ft 16s 8s 2 4 mph 1011.7mb 65f 65f
3:50 5ft 15s 9s  -  2 mph 1011.8mb 65f 65f
2:50 4.5ft 15s 8s 2 4 mph 1012.2mb 65f 65f
1:50 4.5ft 15s 8s 4
mph
1012.5mb 65f 65f
12:50 4.5ft 15s 8s 4 7 mph 1012.9mb 65f 66f
dom 09/25 11:50 4.5ft 16s 7s 7
mph
1013.4mb 65f 66f
10:50 5ft 16s 8s 7 9 mph 1013.6mb 65f 67f
9:50 5ft 15s 7s 11
mph
1013.5mb 65f 67f
8:50 5ft 15s 8s 11 13 mph 1013.1mb 65f 67f
7:50 5ft 15s 7s 11 16 mph 1012.7mb 65f 67f
6:50 4.5ft 16s 8s 11 13 mph 1012.7mb 66f 67f
5:50 5ft 15s 7s 11
mph
1012.8mb 66f 67f
4:50 5ft 15s 7s 9 11 mph 1013.2mb 66f 67f
3:50 5ft 16s 8s 11 13 mph 1013.6mb 66f 66f
2:50 5ft 16s 8s 11 13 mph 1014.2mb 66f 65f
1:50 4.5ft 15s 8s 9 11 mph 1014.9mb 66f 65f
12:50 4.5ft 16s 8s 11 13 mph 1015.5mb 66f 65f
11:50 4.5ft 16s 8s 9
mph
1016.3mb 65f 65f
10:50 4.5ft 16s 8s 9 11 mph 1016.3mb 65f 64f
9:50 5ft 16s 8s 9
mph
1016.3mb 65f 64f
8:50 4.5ft 16s 7s 9 11 mph 1016.1mb 65f 64f
7:50 5ft 16s 8s 9 11 mph 1015.9mb 65f 64f
6:50 4.5ft 15s 7s 11
mph
1015.1mb 65f 64f
5:50 5ft 15s 8s 13 16 mph 1014.5mb 65f 64f
4:50 5ft 16s 8s 9
mph
1014.5mb 66f 64f
3:50 4.5ft 16s 8s 2 4 mph 1014.8mb 66f 64f
2:50 5ft 16s 8s 4 7 mph 1014.9mb 66f 64f
1:50 5ft 16s 8s 4 7 mph 1015.1mb 66f 65f
12:50 5ft 16s 7s 4 7 mph 1015.4mb 66f 65f
sáb 09/24 11:50 4.5ft 16s 7s 9 11 mph 1015.3mb 66f 65f
10:50 5ft 16s 7s 7 9 mph 1015.2mb 66f 65f
9:50 5ft 16s 7s 9 11 mph 1015.1mb 66f 66f
8:50 6ft 16s 7s 7 9 mph 1015.1mb 66f 65f
7:50 6ft 16s 7s 7 9 mph 1014.6mb 66f 65f
6:50 6ft 16s 7s 11 13 mph 1014mb 66f 66f
5:50 6ft 16s 7s 9 11 mph 1014mb 67f 67f
4:50 6.5ft 16s 8s 7 9 mph 1014.5mb 67f 67f
3:50 6ft 8s 7s 4
mph
1015mb 67f 67f
2:50 6.5ft 17s 8s 7
mph
1015.3mb 67f 67f
1:50 7ft 8s 8s 4 7 mph 1015.5mb 67f 66f
12:50 6.5ft 16s 8s 4 7 mph 1016.2mb 66f 65f
11:50 7ft 17s 8s 7
mph
1016.4mb 65f 65f
10:50 7ft 17s 8s 4 9 mph 1016.5mb 65f 65f
9:50 7ft 17s 7s 7 9 mph 1016mb 65f 64f
8:50 7.5ft 17s 8s 4 7 mph 1015.7mb 64f 64f
7:50 8ft 17s 7s 9 11 mph 1015.9mb 64f 64f
6:50 7.5ft 9s 7s 7 9 mph 1015.2mb 64f 64f
5:50 8ft 9s 7s 9 11 mph 1014.9mb 64f 64f
4:50 8ft 8s 7s 11 13 mph 1014.4mb 64f 64f
3:50 8.5ft 17s 7s 13 16 mph 1014.4mb 64f 64f
2:50 8ft 17s 7s 16 18 mph 1014.4mb 64f 64f
1:50 8ft 17s 7s 13 16 mph 1014.7mb 64f 64f
12:50 8.5ft 17s 7s 16 20 mph 1014.9mb 64f 64f
vie 09/23 11:50 8ft 17s 6s 20 25 mph 1014.7mb 64f 64f
10:50 9ft 17s 6s 22 27 mph 1014.7mb 65f 65f
9:50 8ft 8s 6s 22 27 mph 1014.6mb 65f 65f
8:50 9ft 17s 7s 22 27 mph 1014.6mb 65f 65f
7:50 10ft 17s 7s 22 29 mph 1014.5mb 65f 64f
6:50 9.5ft 8s 7s 20 25 mph 1015mb 65f 64f
5:50 9ft 9s 7s 22 27 mph 1014.8mb 65f 64f